Location: Beadle
(51.4667°N, 109.0000°W)
Time: 03:49:54
(UTC+00:00)

Altair - Pass Details

Date: 28 May 2022
Orbit: 1501 x 1682 km, 47.2° (Epoch: 30 June)

Event Time Altitude Azimuth Distance (km) Brightness Sun altitude
Rises 06:30:08 0° 287° (WNW) 4,940 10.6 -16.5°
Reaches altitude 10° 06:34:20 10° 273° (W) 3,948 9.8 -16.6°
Maximum altitude 06:41:08 21° 230° (SW) 3,144 8.8 -16.7°
Enters shadow 06:45:06 16° 202° (SSW) 3,415 8.8 -16.8°
Drops below altitude 10° 06:47:53 10° 187° (S) 3,891 - -16.8°
Sets 06:52:02 0° 172° (S) 4,849 - -16.9°
